Theta_e
315 314 314 313 314 315 316 317 317 317 317 318 318 317 317 316 315 319 319 317 318 317 316 317 316 317 318 317 319 321 320 322 321 326 336 336 334 332 332 333 332 333 335 337 340 340 339 340 341 340 339 339 337 337 338 337 338 338 337 337 337 337 338 338 337 337 337 337 337 336 336 336 335 334 334 333 332 331 332 332 332 333 332 331 331 331
315 314 314 314 315 316 317 318 318 318 318 318 318 317 317 316 316 319 319 317 318 317 316 317 316 316 317 317 318 319 319 321 321 325 333 335 333 332 331 332 331 333 334 333 336 339 339 338 339 338 338 339 338 338 338 338 337 337 337 337 337 337 337 338 337 337 337 337 336 336 336 336 335 335 334 333 333 332 332 332 332 332 331 330 331 330
315 314 314 315 316 317 317 318 318 318 318 318 318 317 316 316 316 317 318 319 318 317 317 317 316 316 317 318 318 318 319 320 321 322 325 329 332 333 332 332 333 334 334 334 334 337 338 336 334 333 335 337 338 338 338 338 337 337 337 336 335 335 335 336 337 336 336 336 336 336 336 335 335 334 333 333 333 332 332 332 332 332 331 331 331 330
315 315 315 316 316 317 317 317 319 319 318 319 319 317 316 317 315 314 317 319 318 318 318 318 317 317 318 318 318 318 319 319 320 321 321 322 325 330 332 332 335 337 335 334 332 333 335 334 332 331 332 335 337 338 338 338 337 336 335 334 334 334 334 334 336 336 336 336 336 336 335 335 334 333 333 333 332 332 332 332 332 330 330 331 331 330
316 317 316 316 315 316 317 317 318 319 319 319 320 318 316 317 316 315 317 318 319 319 319 318 316 316 317 318 318 319 319 318 318 320 320 321 320 323 329 330 332 336 335 334 332 331 332 331 331 332 332 332 334 336 336 335 334 333 333 332 333 334 333 333 334 336 337 336 335 335 335 334 333 332 332 332 332 332 331 331 332 330 330 330 329 327
317 318 318 316 315 315 316 316 318 320 319 319 319 318 316 317 317 317 318 317 316 315 318 318 314 314 316 316 317 318 318 319 319 320 319 321 321 319 325 328 330 335 336 334 332 334 334 332 332 334 333 331 329 333 335 333 333 334 333 333 333 333 333 333 335 336 336 335 334 334 334 334 333 332 332 332 332 331 330 331 331 329 329 328 326 327
317 318 318 317 316 316 316 317 318 320 318 316 317 318 317 317 317 317 317 316 313 313 317 319 314 313 315 316 318 317 318 318 318 320 319 320 321 319 322 326 329 333 336 335 334 337 337 335 334 334 334 331 326 331 334 333 334 335 333 333 333 333 333 333 335 336 336 335 334 334 334 334 333 333 332 332 331 330 330 329 329 329 329 327 327 328
318 318 318 317 317 317 317 317 318 319 317 315 317 318 317 317 317 317 316 315 315 315 317 317 314 313 313 315 319 318 319 319 318 319 320 320 320 320 323 327 329 330 333 336 336 337 338 336 335 335 334 331 327 331 335 334 334 334 331 330 331 333 333 332 334 336 335 335 334 334 334 333 333 333 331 331 331 330 328 327 328 328 327 327 328 329
319 318 318 317 317 317 317 317 317 317 317 316 317 317 317 318 318 317 316 315 316 315 313 314 315 313 312 315 319 319 318 317 319 320 320 321 320 320 324 328 330 329 331 335 334 335 336 335 335 335 335 332 329 332 336 335 334 333 329 328 332 335 335 333 334 335 335 334 334 333 333 333 333 332 331 331 330 329 328 327 328 327 325 327 329 330
319 318 317 318 317 317 317 317 317 316 317 317 318 317 317 317 317 317 317 315 315 315 313 313 314 312 311 314 317 319 321 320 319 319 320 321 321 322 326 328 330 331 332 332 331 333 335 334 334 336 336 334 330 330 334 336 335 332 329 329 332 335 335 335 335 335 335 334 333 333 333 332 333 332 331 330 328 328 328 325 325 326 326 329 331 331
318 318 318 318 318 318 317 317 317 316 317 317 317 317 316 317 317 317 316 314 313 313 313 313 314 313 312 313 316 322 326 326 323 323 325 326 326 326 328 331 331 332 332 331 334 338 338 338 338 337 337 333 329 328 333 336 335 333 331 330 332 334 335 336 335 335 334 332 333 334 333 332 332 331 330 329 328 328 327 325 325 326 326 330 332 331
317 318 318 318 318 319 317 316 317 317 317 317 317 316 315 315 315 315 314 314 313 313 313 313 314 313 311 313 320 327 328 328 328 327 327 327 328 327 327 331 331 330 330 330 335 339 339 339 340 338 337 333 330 330 333 335 335 334 333 332 333 334 335 336 335 334 333 333 333 333 332 331 331 330 328 328 328 328 328 328 328 328 329 331 331 330
315 317 318 318 318 318 317 316 316 317 316 317 316 315 314 313 313 313 312 313 313 313 313 314 314 313 314 318 324 328 328 328 329 329 327 326 325 325 327 331 332 332 332 331 334 339 338 339 340 339 337 334 332 332 334 336 336 335 335 334 335 335 335 336 335 332 332 332 333 332 332 331 330 328 327 328 328 329 329 330 331 331 331 331 330 330
315 316 316 317 318 318 318 315 314 315 315 316 314 314 313 313 313 313 313 313 314 314 314 316 314 313 319 325 326 327 329 329 330 330 329 327 325 325 328 332 333 334 335 335 336 339 339 339 340 339 338 335 334 334 335 338 337 336 336 335 335 335 335 335 333 331 331 332 333 332 332 330 327 327 328 328 329 330 331 332 332 331 331 331 329 329
314 315 316 316 317 317 317 316 315 315 315 316 316 315 314 313 313 313 313 313 314 315 316 317 315 315 321 328 328 329 330 330 330 331 331 330 329 330 331 334 335 334 335 337 337 338 339 339 339 339 339 338 337 337 338 339 337 336 337 336 335 335 335 335 332 331 332 332 332 331 330 327 324 325 328 328 330 331 332 332 331 330 330 330 329 329
314 315 316 317 317 317 316 316 317 316 315 317 317 315 314 313 314 313 313 315 315 316 317 315 317 322 326 327 328 329 330 330 330 330 332 332 333 333 333 334 335 335 334 334 333 334 336 337 338 338 339 339 339 339 339 339 337 336 337 337 335 335 335 335 334 333 333 332 332 330 327 324 324 326 328 329 330 331 331 331 330 329 330 329 329 329
314 315 317 318 317 317 317 316 317 316 315 316 316 314 315 315 315 313 313 315 315 316 317 314 318 327 328 326 328 328 328 330 330 330 332 333 333 333 334 334 333 332 332 332 331 331 333 335 336 337 338 339 339 340 339 338 337 337 336 336 335 335 335 335 335 334 333 333 330 327 324 324 325 328 329 330 330 330 330 330 330 329 329 329 329 328
316 316 318 318 317 317 318 317 316 316 316 315 314 315 316 316 315 314 314 315 315 316 316 314 317 324 325 325 328 328 328 330 330 331 332 333 333 332 331 331 330 330 329 330 331 330 331 331 331 332 333 334 336 338 339 337 336 336 335 335 336 336 335 335 335 334 333 333 329 324 325 325 325 327 328 329 330 330 330 329 329 329 328 329 328 325
316 315 317 317 317 317 318 317 316 317 316 316 316 317 316 314 314 314 313 315 316 316 317 315 315 322 324 324 326 327 329 330 329 329 330 331 332 330 328 328 329 330 329 329 330 329 329 329 328 328 328 328 330 334 335 335 335 334 333 334 335 334 334 333 334 334 333 333 329 326 325 325 326 328 329 330 330 330 330 329 329 326 325 326 324 322
317 315 316 317 317 317 318 317 315 316 316 316 316 317 317 316 315 314 314 314 315 316 318 316 316 324 327 326 326 327 329 330 328 327 328 330 330 329 328 328 327 327 328 329 329 328 328 328 328 329 329 327 328 331 332 332 333 332 332 332 331 332 332 330 330 332 333 332 330 328 325 325 328 330 330 330 330 329 328 327 326 323 322 325 324 322
317 317 317 317 317 316 316 316 315 315 316 315 314 314 316 316 316 316 316 315 314 315 317 316 318 326 328 326 327 327 328 329 327 327 329 330 329 328 327 327 325 325 327 327 327 327 327 328 328 329 329 325 326 330 331 330 331 331 331 331 331 331 331 329 328 330 331 331 330 329 327 326 329 330 330 330 328 327 326 325 324 320 320 324 323 320
317 318 317 317 316 315 315 317 317 317 316 316 315 314 315 316 315 316 316 316 315 315 317 318 322 328 328 325 327 328 328 328 327 328 329 329 328 326 326 325 324 324 325 325 325 325 325 327 328 328 328 325 325 329 331 331 330 330 331 332 332 331 331 330 330 329 329 329 328 328 328 328 329 329 329 328 326 326 326 326 324 320 320 323 321 320
317 317 317 316 316 315 317 317 316 317 317 316 316 315 315 316 315 315 316 318 318 316 317 318 322 327 328 326 327 328 327 328 327 328 328 327 326 325 325 325 323 323 324 324 325 325 324 325 327 327 327 326 326 328 330 331 331 331 332 332 332 332 331 330 330 330 329 327 326 326 327 327 327 327 327 326 326 327 327 327 325 321 322 324 321 322
317 317 316 316 317 316 317 317 317 317 316 316 316 316 316 316 316 315 317 320 319 317 319 318 320 326 327 326 327 328 327 327 327 327 327 326 325 324 323 324 323 323 324 325 325 326 325 325 327 327 326 326 328 328 329 331 331 331 331 332 331 332 331 330 330 331 330 328 324 323 324 324 325 326 327 326 327 328 327 326 322 317 318 319 319 324
317 316 316 317 317 317 316 317 317 317 316 315 316 317 317 316 317 318 319 319 318 317 319 320 321 326 326 326 326 326 326 325 325 325 325 325 324 323 323 323 323 323 324 324 324 325 325 325 326 327 327 327 328 328 328 329 330 330 330 330 330 331 331 330 330 330 329 327 324 324 324 324 324 325 327 327 327 327 326 323 319 317 319 320 320 324
318 318 318 318 318 318 318 318 317 317 318 318 318 318 319 317 318 322 321 318 318 318 318 319 324 327 327 325 325 325 324 324 324 324 324 323 323 322 322 322 322 322 322 323 323 323 323 324 325 326 326 326 327 327 328 328 328 328 328 328 329 329 330 330 329 329 329 327 325 325 326 324 323 324 326 327 327 326 325 324 321 321 323 323 323 323
319 320 320 319 319 320 320 320 320 320 319 319 319 320 320 320 321 323 322 320 320 322 321 321 326 328 327 325 325 325 324 323 323 323 322 322 321 321 321 321 321 321 320 320 320 320 320 322 323 324 324 324 325 325 326 326 326 326 326 327 327 329 329 329 328 328 327 327 326 325 325 323 323 325 326 326 327 326 326 326 323 322 322 323 323 323
321 320 321 322 321 321 321 321 321 322 320 320 322 323 323 324 323 321 321 322 322 323 322 324 327 328 327 326 325 324 323 321 321 320 320 320 320 319 319 319 319 319 318 317 317 317 318 319 320 321 321 322 324 324 324 324 325 324 324 325 326 327 328 328 327 326 326 327 326 325 324 323 324 325 326 326 326 326 326 325 323 323 322 322 323 322
321 320 322 323 322 321 321 321 321 321 319 321 323 325 325 325 325 325 325 325 325 323 323 324 326 327 326 324 322 321 320 319 319 319 319 319 318 318 318 317 317 316 315 315 314 314 315 316 318 319 320 320 321 323 323 323 323 323 323 324 325 326 327 327 327 327 327 328 327 325 324 324 325 326 326 326 326 326 325 324 324 324 322 322 322 321
321 321 322 322 322 322 322 321 322 321 320 322 323 323 323 323 324 326 326 324 324 325 324 325 326 325 322 320 319 318 318 318 317 317 317 317 316 316 316 315 315 314 313 313 313 313 313 313 315 318 320 320 320 322 323 323 323 323 323 324 324 325 327 327 327 328 328 328 328 326 325 325 325 326 326 326 326 325 325 324 324 323 322 322 322 320
320 320 321 321 321 322 322 321 321 321 321 322 323 322 321 322 323 324 325 324 323 324 325 325 324 321 318 317 318 317 317 316 315 314 314 314 314 314 314 314 313 312 312 311 312 314 314 314 315 316 318 320 320 321 321 322 322 322 323 323 323 324 324 325 326 327 328 328 327 326 326 327 326 326 326 326 325 325 325 324 323 322 322 322 321 320
319 318 319 319 320 320 321 321 321 321 321 322 322 321 320 321 321 323 324 324 323 324 325 325 324 320 317 317 317 316 315 314 312 312 311 311 311 312 312 312 311 310 310 311 313 314 315 315 315 315 316 318 319 320 320 320 321 321 322 322 322 323 323 324 325 326 326 327 327 326 326 326 327 327 326 326 326 324 324 324 323 322 321 321 320 319
319 318 318 319 319 319 320 321 321 321 321 322 320 318 319 320 320 321 322 322 322 322 324 324 322 319 316 315 314 312 311 311 310 310 310 309 308 308 309 309 309 309 308 309 311 313 313 314 314 314 314 314 316 317 318 319 320 320 321 321 321 322 323 323 324 325 325 325 326 326 325 325 326 326 326 326 325 324 324 323 322 322 321 321 320 319
319 318 318 318 317 318 321 321 320 322 322 319 315 315 317 318 319 320 320 320 320 320 320 320 318 316 315 313 311 309 309 308 307 307 307 308 307 306 306 306 307 307 307 307 309 310 311 312 313 313 313 312 313 313 313 316 319 319 319 320 321 321 322 322 323 323 323 323 323 324 324 325 325 325 326 326 325 324 323 323 322 322 321 320 319 319
319 318 318 318 316 318 320 320 320 321 319 315 313 313 314 316 317 318 317 317 318 318 317 316 314 312 311 310 308 308 307 306 306 305 305 306 306 306 305 305 305 305 305 305 307 309 310 311 312 313 313 313 313 312 310 312 315 318 319 319 320 320 320 321 321 321 322 322 321 322 322 323 323 323 324 324 324 323 323 322 322 321 320 318 315 316
317 317 318 318 317 318 319 320 320 318 315 314 314 312 313 315 316 316 316 316 315 316 315 312 311 310 309 308 307 307 306 305 305 304 304 304 304 304 304 304 304 304 304 304 306 307 309 309 310 310 311 312 314 314 312 310 311 313 316 318 318 319 319 319 320 320 321 321 321 321 321 321 322 322 322 322 322 322 322 322 321 320 318 316 312 312
315 316 317 317 318 318 318 318 316 315 314 314 313 312 312 313 313 314 316 315 314 314 313 311 310 309 308 308 307 306 306 306 305 304 304 303 303 303 303 303 303 303 303 303 304 305 306 307 307 308 309 310 312 314 313 311 311 312 313 315 316 317 318 319 319 319 319 320 320 321 321 321 321 321 321 320 320 321 321 321 320 319 317 316 315 315
315 317 317 317 317 317 317 317 315 316 317 314 311 311 311 312 312 312 315 315 313 313 313 311 310 309 308 308 307 308 308 307 305 304 304 303 302 302 301 301 302 302 302 303 304 304 305 306 306 307 308 308 310 312 312 312 313 314 315 315 315 316 317 317 317 318 318 318 318 319 319 319 320 320 320 320 320 320 320 320 320 318 316 316 317 316
316 317 316 316 315 314 315 318 317 317 315 311 309 310 311 312 312 313 315 315 312 311 312 311 310 309 309 309 308 309 310 308 304 303 303 302 302 301 301 301 301 302 302 303 303 304 304 305 306 308 310 309 308 309 310 311 313 315 316 315 315 316 317 317 316 317 317 317 318 318 318 318 318 319 319 319 319 320 319 319 319 318 315 315 316 314
316 317 315 314 314 314 315 316 315 313 311 308 308 309 311 311 312 315 318 315 311 310 311 310 310 309 308 308 306 306 307 306 303 302 301 301 301 301 301 301 301 301 302 302 303 303 304 305 306 308 309 308 307 308 309 309 311 312 312 313 314 314 315 315 316 316 317 317 317 317 317 318 318 318 318 318 319 319 318 318 318 318 317 316 316 315
315 315 315 314 315 315 315 314 312 310 308 306 307 309 310 310 312 316 317 313 310 310 309 308 309 308 306 305 303 301 302 302 301 300 300 300 300 299 299 300 300 300 300 301 301 301 302 304 305 305 306 305 306 307 308 308 309 308 307 308 309 310 310 312 314 315 316 316 316 316 316 317 317 317 316 317 317 318 318 318 318 318 318 318 318 318
313 313 314 314 314 315 314 313 312 310 307 305 307 308 309 311 314 313 311 310 309 308 307 306 306 305 303 302 301 300 300 300 300 299 299 299 299 299 299 299 299 299 299 299 299 299 299 300 300 301 302 303 304 305 305 306 307 307 306 306 305 304 305 307 309 311 312 313 313 313 314 314 315 315 315 315 315 316 317 317 316 316 316 316 316 316
310 311 313 312 311 314 314 313 313 311 306 305 307 308 308 310 311 309 309 309 308 306 305 304 303 302 301 300 299 299 299 299 299 299 299 299 299 299 299 299 299 299 299 299 299 299 299 298 299 299 299 300 301 302 303 304 304 305 306 307 306 304 304 304 304 305 306 306 307 308 309 310 311 313 313 313 313 313 313 313 313 313 313 313 313 313
309 311 312 309 308 311 313 311 309 307 304 304 305 306 306 306 307 309 309 309 306 305 304 302 301 301 300 299 298 298 298 298 298 298 298 298 298 298 298 298 297 298 298 299 300 300 299 299 300 300 299 299 298 298 299 300 300 301 302 302 302 303 304 304 304 304 304 304 304 304 304 305 306 308 309 310 311 311 312 312 311 311 311 311 311 311
307 308 309 307 306 307 307 306 305 304 303 303 304 304 304 305 307 309 309 307 305 304 303 301 301 300 300 299 298 298 298 298 298 298 298 298 298 298 298 297 297 297 298 299 299 300 299 299 300 300 300 300 299 299 298 297 297 297 298 298 298 299 300 301 301 302 303 303 303 302 302 302 303 303 304 305 306 307 309 310 310 310 310 310 310 310
308 307 307 306 305 305 305 304 304 303 303 302 302 303 303 305 306 307 306 305 304 303 302 301 301 300 299 299 298 298 298 298 298 298 298 298 298 298 298 298 298 297 298 299 299 300 300 299 300 300 300 300 300 300 299 299 298 298 298 297 297 298 298 298 298 299 299 299 300 301 301 300 301 301 301 302 302 303 304 306 307 309 309 308 308 308
308 308 307 306 306 306 305 304 303 303 302 302 302 302 303 304 304 305 305 304 303 302 302 301 301 301 300 300 299 299 299 299 299 299 299 299 299 298 297 297 297 297 297 298 299 299 298 298 298 299 299 299 300 300 299 299 300 300 299 298 297 297 297 297 297 298 298 298 299 299 299 298 298 299 299 300 300 300 300 300 301 303 304 305 305 305
307 307 306 305 305 305 304 303 302 302 302 302 302 302 302 302 302 303 303 303 303 302 301 301 301 301 301 300 300 300 300 299 299 299 299 299 299 298 298 298 297 297 298 298 298 298 298 298 298 298 298 298 298 298 298 299 299 300 301 300 299 299 298 298 298 299 298 299 299 299 298 297 296 296 297 297 297 297 297 297 297 298 299 301 301 301
307 307 306 305 305 304 304 303 303 302 301 301 301 301 301 301 301 302 302 302 301 301 301 301 301 301 301 301 301 300 300 300 300 300 300 300 300 300 299 299 299 299 299 299 299 299 299 299 299 299 299 298 298 297 297 297 298 299 300 301 301 301 301 300 300 301 300 300 300 300 300 299 298 296 295 295 295 295 296 296 296 296 296 297 297 297
307 306 306 305 305 305 305 304 303 302 302 301 301 301 301 301 301 301 301 301 301 300 300 300 300 301 301 301 301 301 301 301 301 301 301 301 301 300 300 299 299 300 300 300 300 300 300 300 299 299 299 299 299 298 297 296 297 298 299 301 302 302 302 301 300 300 300 300 301 300 301 301 301 299 298 297 297 296 295 295 295 295 295 295 295 295
307 307 306 305 305 304 305 304 303 303 302 302 302 301 301 301 301 300 300 300 300 300 300 300 300 300 300 300 300 300 300 301 301 301 301 300 300 300 299 299 299 299 299 300 300 299 300 300 300 299 299 299 299 299 299 298 297 298 299 300 301 301 301 301 300 299 300 299 300 300 300 300 300 300 300 300 300 300 298 297 295 295 295 295 295 295
Wind_Speed
12 7 8 8 9 12 13 14 15 18 16 10 10 7 8 8 9 10 8 13 6 3 4 6 8 10 10 11 11 10 11 13 9 7 19 19 19 21 19 17 14 9 10 10 11 13 10 7 7 7 8 8 10 14 17 17 17 17 16 14 14 14 15 16 16 16 16 17 17 16 15 15 15 13 10 9 10 12 14 16 18 18 18 19 18 16
12 8 9 12 13 14 14 15 15 18 16 11 10 8 7 6 6 8 4 11 11 5 4 8 10 11 11 11 12 14 11 12 11 9 14 20 21 22 22 22 19 15 16 14 12 14 13 11 9 8 7 9 11 14 15 16 15 15 15 13 12 13 14 15 15 15 16 15 14 13 12 12 11 8 9 11 12 12 14 16 17 17 17 18 18 16
9 8 12 14 14 14 14 14 14 16 14 8 8 8 6 5 4 8 9 6 9 5 4 8 10 10 11 12 12 14 15 10 12 13 13 16 20 22 25 25 22 21 22 18 14 16 16 15 13 11 8 6 9 12 14 15 15 14 13 11 11 12 13 14 13 13 12 12 12 11 10 9 7 6 8 11 11 11 13 14 15 15 15 17 17 15
7 10 15 16 14 14 14 14 12 12 10 6 7 8 7 8 7 7 5 5 3 2 2 5 9 8 10 12 11 14 17 18 15 15 16 17 17 19 25 25 21 22 25 22 17 18 18 16 15 15 13 8 7 11 13 13 15 15 14 12 12 13 13 14 14 12 10 10 11 11 9 8 6 5 6 9 11 12 12 13 15 15 15 16 15 15
9 13 19 18 15 15 15 13 10 7 6 7 9 10 8 10 11 10 6 3 2 3 1 4 9 7 10 11 10 11 13 17 21 15 15 17 20 20 24 29 27 24 24 24 20 19 18 16 15 16 17 14 10 12 16 16 17 17 15 13 14 15 15 15 16 15 13 12 14 13 12 11 10 8 9 10 10 12 13 12 15 17 16 16 14 14
12 16 17 16 16 17 15 11 10 8 6 8 11 13 13 13 13 13 13 8 5 3 5 8 8 6 9 13 12 11 10 14 19 15 13 15 19 20 19 28 29 25 24 25 22 20 19 17 18 18 19 19 15 17 19 18 17 15 14 13 14 16 16 16 18 17 14 14 15 14 14 14 13 12 11 11 10 11 13 13 14 16 17 15 14 13
9 15 13 10 11 13 12 9 10 11 8 7 9 12 15 15 15 15 15 11 5 4 6 8 8 5 7 11 12 13 14 15 15 12 12 14 16 17 15 21 25 26 26 24 21 20 20 21 23 22 21 21 20 20 21 20 17 15 14 15 15 16 16 17 19 17 14 14 14 14 13 12 13 12 12 13 11 10 13 14 13 15 15 14 12 12
9 16 13 10 9 7 8 9 10 12 9 7 10 12 15 17 17 15 12 9 6 6 9 10 10 8 6 7 9 11 13 14 14 14 14 12 14 16 13 21 25 25 26 26 24 22 23 26 27 25 23 22 20 20 22 22 20 18 16 15 16 16 17 18 18 16 14 14 15 15 13 11 12 13 13 14 13 12 13 14 14 14 13 13 12 12
9 14 13 12 11 8 8 10 11 13 10 9 12 11 11 12 10 9 7 8 8 7 9 10 11 9 6 6 9 12 12 10 11 12 9 10 14 17 14 24 23 22 23 23 23 24 26 29 28 26 25 22 19 20 22 23 21 20 18 16 16 17 18 18 18 16 14 15 15 15 14 13 14 13 14 15 15 15 15 14 15 13 13 13 13 12
9 13 13 10 9 8 9 11 13 14 10 10 13 7 6 9 8 6 7 7 8 8 9 10 11 9 6 6 7 7 7 6 9 10 7 8 12 9 12 23 16 15 16 14 15 16 21 25 25 26 24 20 19 20 22 24 24 23 20 18 18 18 20 20 18 16 15 16 15 15 15 16 16 16 15 16 17 17 15 15 15 15 15 15 14 13
9 12 12 10 11 10 11 12 13 13 10 10 11 7 6 7 6 7 7 7 6 8 10 12 13 10 7 6 4 1 3 4 5 3 4 2 1 7 9 19 14 13 12 9 9 11 15 17 19 23 22 19 18 19 22 24 26 26 22 20 19 20 21 21 19 18 17 17 16 16 16 16 18 18 18 19 18 17 17 16 17 17 17 15 14 14
12 11 9 9 12 11 10 11 11 10 9 8 8 5 5 5 6 7 7 7 7 8 10 12 14 13 10 5 1 4 7 6 5 3 5 7 7 9 4 14 15 14 13 11 9 10 12 13 14 18 20 18 17 18 22 26 28 28 24 20 18 20 22 22 20 21 20 18 17 18 17 17 18 18 18 19 18 18 18 18 18 17 17 16 15 15
12 11 9 9 10 11 10 8 8 8 8 8 7 6 6 5 6 7 6 7 7 8 10 12 13 10 5 2 7 7 6 6 5 5 3 4 4 4 4 11 15 12 13 16 16 14 14 14 14 16 17 19 19 19 25 30 31 29 25 20 20 22 24 23 23 23 23 20 20 21 20 19 19 18 18 19 19 20 19 18 18 17 17 17 15 15
9 10 14 13 10 13 14 8 7 8 9 10 8 7 7 6 6 6 6 6 7 8 10 12 12 7 2 6 7 5 4 5 5 5 5 3 2 7 7 11 13 11 13 19 21 20 18 17 16 17 18 20 22 24 28 31 30 28 26 23 23 25 25 24 24 24 24 23 22 22 22 21 20 19 19 20 20 21 20 18 18 17 16 14 14 13
9 9 13 13 8 13 16 13 10 9 9 10 8 8 8 6 6 6 5 6 7 6 6 8 9 4 2 2 3 5 5 7 6 6 6 5 2 3 4 8 8 10 13 16 19 21 21 20 19 19 20 22 25 27 29 30 28 26 26 25 26 26 25 24 23 23 24 23 23 24 23 21 19 19 20 20 21 20 19 18 17 17 15 13 13 13
11 8 9 12 10 12 15 15 15 12 8 9 9 9 8 8 7 5 5 5 4 3 4 4 2 4 3 6 4 4 5 6 6 6 6 5 4 3 1 4 5 7 12 15 16 17 17 17 18 19 21 23 27 29 30 29 27 25 26 26 26 27 25 22 20 21 23 22 22 23 22 21 19 18 19 20 20 19 17 18 17 18 18 15 16 16
9 7 8 12 13 14 15 14 15 13 7 6 8 9 8 10 9 6 6 5 3 4 4 5 2 5 5 6 5 4 4 6 6 6 6 6 5 4 4 4 2 2 7 12 14 15 14 14 15 18 22 25 27 28 28 26 24 25 24 23 24 25 23 21 19 20 21 19 20 22 21 20 19 18 18 19 19 17 16 17 17 18 19 17 17 16
6 6 8 13 14 15 16 15 15 15 12 6 6 8 8 10 10 6 5 5 6 6 5 6 6 4 4 3 5 4 3 5 5 6 6 7 9 8 8 11 11 6 3 8 10 11 11 10 9 9 12 17 22 24 24 21 20 20 18 17 20 22 19 18 18 19 20 18 20 22 20 18 18 18 19 19 18 16 17 18 18 18 19 18 16 14
5 5 8 13 13 12 13 13 12 14 16 12 7 6 6 7 7 5 5 5 6 6 4 7 8 1 2 0 3 3 2 5 6 8 7 7 10 10 10 12 13 11 9 6 7 8 11 12 13 16 17 15 9 14 15 14 15 14 10 9 13 15 15 15 15 15 17 17 19 21 19 18 19 19 19 19 18 18 18 19 18 17 16 16 15 14
4 3 6 10 11 10 10 10 9 9 13 13 10 8 6 5 5 5 5 5 6 6 4 7 6 2 3 3 2 1 3 6 7 5 4 7 11 12 13 14 14 15 16 13 9 10 14 15 14 13 20 31 22 5 4 4 7 5 1 2 6 9 11 13 15 15 14 14 17 20 18 18 20 19 17 17 19 19 18 18 17 15 15 15 14 16
6 3 4 7 9 10 8 7 8 8 9 10 9 9 7 5 5 4 3 4 5 5 4 6 3 3 2 3 2 3 4 6 7 5 2 7 13 13 14 15 16 17 18 18 17 18 21 23 20 12 15 28 24 7 5 5 2 4 6 6 9 9 10 13 16 18 15 12 14 18 18 18 19 18 16 16 18 18 17 16 15 15 16 16 14 16
5 5 5 7 7 9 8 10 13 13 11 10 9 9 9 8 7 6 5 4 5 5 4 3 0 1 2 4 3 4 5 5 5 6 5 10 13 14 15 15 15 16 15 17 17 17 21 24 23 19 18 21 14 7 8 11 6 4 4 6 10 10 10 14 17 17 17 14 14 17 19 19 19 18 16 15 16 17 15 15 15 16 17 15 14 16
4 3 5 7 7 8 10 11 13 15 15 12 10 10 10 8 7 7 5 3 4 6 5 1 3 2 2 2 5 6 9 8 6 6 8 11 14 14 14 13 12 11 10 12 14 16 19 19 19 20 18 14 9 6 8 10 6 3 4 4 6 8 12 15 16 17 19 17 16 18 20 19 19 17 16 16 17 17 16 16 14 15 17 15 14 16
4 3 5 7 6 9 11 8 7 12 14 12 10 10 10 10 10 9 4 3 3 2 2 1 1 2 2 4 5 6 11 12 9 9 10 12 14 14 12 11 11 10 10 13 16 17 18 15 15 18 16 11 11 11 9 6 5 5 5 4 2 6 10 13 13 14 18 19 19 21 21 21 20 18 18 19 19 19 18 16 13 13 15 14 15 16
3 4 5 6 6 7 9 6 6 10 11 7 7 8 11 14 12 5 1 4 3 3 4 1 1 2 4 4 4 6 9 9 9 10 10 12 13 12 10 9 9 11 13 16 18 19 20 16 13 16 17 12 12 14 11 6 5 5 3 2 1 4 8 11 11 11 16 20 22 24 25 24 23 21 21 21 19 18 16 14 13 13 14 14 15 16
4 4 5 7 7 6 6 5 4 4 3 4 6 8 12 15 9 2 2 2 2 3 5 3 1 4 6 5 4 5 7 7 7 9 9 11 12 10 9 9 10 12 14 17 19 20 22 20 14 13 14 13 12 12 11 9 7 5 4 3 1 2 5 10 11 11 14 18 22 28 30 27 25 24 23 22 20 17 14 13 14 14 14 14 14 14
2 4 3 4 4 2 3 4 7 7 3 4 9 8 9 12 7 3 2 2 1 1 2 0 6 8 6 6 7 6 7 7 7 8 9 9 9 9 9 10 11 12 14 17 21 22 22 20 16 12 11 11 10 9 10 10 9 7 5 4 3 3 3 7 10 10 12 16 22 28 29 27 24 23 24 23 21 19 16 14 14 14 14 14 14 14
0 2 3 4 4 3 3 4 8 10 6 4 9 11 12 13 9 2 2 3 3 4 2 1 6 10 8 9 9 9 8 7 7 8 8 9 9 9 10 11 11 12 15 18 21 23 23 21 17 13 11 10 9 8 8 8 6 6 5 4 5 3 2 4 9 12 13 18 24 27 27 26 25 23 22 22 22 21 19 16 14 14 14 14 14 14
0 1 4 5 5 4 4 5 8 8 6 4 7 9 12 15 13 7 7 9 6 4 2 4 5 9 8 7 10 12 10 9 9 9 9 10 10 10 11 12 13 13 16 18 20 22 24 22 17 13 11 11 10 8 8 8 7 8 7 6 5 3 0 2 9 15 17 20 24 26 26 25 25 24 23 21 21 20 18 17 14 13 14 13 13 14
1 1 3 4 4 5 4 5 9 10 5 3 7 10 11 12 11 8 9 9 8 6 3 4 7 9 7 7 10 13 13 12 12 12 12 12 12 11 12 14 15 16 17 18 19 21 22 21 18 13 10 10 10 10 9 10 10 11 9 8 7 4 3 4 8 13 17 22 24 24 25 25 25 25 24 23 23 20 18 17 16 13 13 13 12 13
2 2 1 1 3 4 2 2 7 10 4 2 7 11 11 10 9 6 7 8 7 5 5 8 9 6 5 8 11 13 14 13 13 13 14 14 13 13 14 15 16 17 17 17 18 19 19 19 18 16 13 12 11 11 11 10 10 9 9 9 9 6 3 4 7 10 14 19 21 22 23 24 24 24 24 24 24 23 21 21 19 16 15 14 13 13
3 3 3 4 4 4 2 2 3 7 5 2 6 10 9 7 5 5 6 7 4 5 8 9 6 3 4 8 11 13 14 14 13 13 12 14 15 15 16 17 17 16 16 16 16 15 15 17 19 19 17 15 12 11 11 11 10 10 9 8 9 9 6 3 7 11 12 13 15 17 19 21 22 22 23 23 22 23 23 23 22 21 20 18 16 16
2 3 3 3 4 3 1 2 1 2 4 3 4 8 8 6 4 4 8 10 6 3 5 3 4 6 8 9 10 11 13 13 13 13 12 12 14 15 16 16 16 15 15 15 14 14 14 15 18 19 19 18 17 16 15 13 12 11 10 8 9 10 9 7 8 11 12 10 10 12 14 17 19 20 21 22 22 22 22 22 23 23 22 21 19 19
1 2 2 1 2 2 3 4 0 2 2 2 1 4 7 7 8 8 9 11 9 7 5 5 8 9 9 9 10 10 12 14 15 16 15 13 12 14 14 14 14 15 15 14 13 14 15 15 16 18 19 19 19 19 18 17 15 13 11 9 10 11 12 12 11 12 13 11 8 9 10 13 16 18 19 20 21 21 21 21 23 22 21 20 19 18
2 2 1 1 1 0 4 3 1 2 1 1 1 4 7 6 8 12 11 12 9 10 12 12 11 10 11 13 14 15 17 19 20 20 18 16 13 13 13 13 13 14 15 15 15 16 16 16 16 17 18 17 18 19 20 19 17 15 12 10 11 13 13 14 15 15 15 14 12 10 8 7 9 12 14 16 17 19 20 21 21 21 19 17 15 15
4 3 2 2 2 1 2 2 1 1 1 2 5 8 8 5 5 9 9 9 10 8 11 11 10 11 13 15 16 17 19 21 23 22 19 17 15 15 14 13 12 13 15 17 18 18 17 17 17 17 16 16 16 18 19 18 17 17 16 14 13 14 13 13 15 15 16 17 16 14 12 11 9 8 9 11 13 16 18 18 16 17 17 16 14 14
5 4 3 4 3 3 2 2 3 4 3 4 5 6 6 4 4 4 3 6 8 7 8 9 9 11 13 14 16 16 16 18 19 18 17 15 15 15 15 13 12 13 16 18 19 19 18 19 19 18 17 16 16 16 16 16 16 17 18 18 17 17 16 15 15 15 14 15 15 15 15 14 14 13 10 8 9 11 13 13 13 15 17 14 12 12
4 4 4 4 3 1 1 2 3 4 3 4 5 6 6 2 2 4 1 3 5 6 7 8 9 11 12 13 14 14 9 10 9 9 14 14 14 16 17 17 17 18 19 19 19 20 20 20 20 20 20 19 18 16 15 14 14 15 16 18 18 19 19 19 19 17 16 15 15 15 15 15 15 15 14 11 10 9 9 8 10 16 17 13 10 10
3 3 3 3 3 1 0 1 1 2 3 4 7 8 8 4 2 4 1 3 4 6 7 8 9 10 9 10 11 8 3 4 4 7 12 12 14 17 18 19 20 20 20 20 19 19 19 18 18 18 20 21 20 18 17 16 16 16 18 18 18 18 19 20 20 19 17 16 15 14 14 13 13 13 13 13 13 12 10 9 9 13 16 13 11 11
1 3 3 3 3 3 1 1 2 3 3 5 9 10 10 8 5 4 2 2 3 5 7 8 9 9 7 9 11 7 4 5 7 8 12 13 14 17 17 18 19 19 19 19 19 18 16 15 15 16 18 20 19 17 17 17 18 19 19 18 18 20 20 19 18 18 17 16 15 15 14 14 14 13 11 11 13 13 13 13 11 11 12 12 12 13
1 2 3 4 4 4 3 3 3 2 2 8 13 12 11 9 4 1 1 2 5 9 11 10 11 11 10 12 16 13 11 14 17 17 17 18 18 19 19 19 20 19 19 19 18 18 17 15 15 15 16 17 16 14 14 14 16 18 18 18 19 20 19 17 15 16 16 15 15 15 15 15 16 16 15 12 12 13 14 14 12 11 11 9 8 9
0 0 2 2 3 4 4 4 3 3 4 13 17 13 10 5 1 2 3 6 10 12 13 13 13 13 15 18 21 22 21 22 22 21 20 20 18 17 17 18 19 19 19 20 20 20 18 17 16 15 15 14 13 13 12 11 12 14 15 17 18 16 15 14 14 14 14 13 13 13 13 13 14 16 17 15 14 14 15 14 13 11 9 7 6 6
3 2 1 2 3 2 4 4 2 3 6 17 15 8 7 5 1 3 3 10 14 14 14 15 13 15 20 22 23 25 25 24 22 22 21 20 19 17 16 17 17 17 17 20 21 20 19 18 18 18 16 14 12 12 10 9 9 10 11 13 14 12 11 12 12 11 11 12 12 13 13 12 12 13 14 15 15 16 18 19 17 14 11 10 10 10
7 4 2 3 4 2 3 3 2 2 7 14 11 4 6 8 4 2 4 13 15 14 16 17 15 17 22 24 24 24 25 24 22 21 20 19 19 19 18 17 17 17 17 18 19 18 17 17 17 17 17 16 15 13 11 9 8 8 9 10 10 9 9 9 9 9 9 9 10 10 10 10 10 11 11 12 13 14 17 18 18 15 13 12 12 11
6 6 7 6 5 5 6 4 5 7 9 11 11 10 12 16 13 9 13 17 16 14 17 19 18 18 20 23 25 24 23 24 22 20 20 19 17 17 17 17 17 16 16 17 17 17 16 15 15 15 15 16 16 14 13 11 9 9 9 9 8 8 8 7 7 7 7 8 9 9 8 7 8 8 8 9 9 9 11 13 14 16 16 15 14 13
8 9 9 8 7 9 11 10 10 11 12 11 12 14 19 23 22 19 21 21 17 17 18 20 20 20 20 23 25 24 22 22 21 19 17 16 16 16 16 15 16 16 15 16 16 15 13 12 12 13 14 14 14 13 13 13 12 11 10 9 7 6 7 7 6 6 7 8 9 9 8 7 7 7 6 6 5 6 7 7 9 11 12 12 13 13
9 11 9 6 5 4 6 9 10 11 12 12 14 19 23 24 23 22 23 22 20 20 20 20 20 19 19 21 22 21 19 18 17 16 13 12 13 15 16 17 16 16 14 14 13 11 10 10 10 11 11 11 11 11 11 12 13 13 11 10 8 7 7 7 8 8 9 10 10 9 7 6 6 6 5 4 3 3 4 6 6 6 7 7 8 9
8 11 10 8 7 6 6 9 13 16 15 13 13 17 21 23 24 23 22 22 22 22 22 22 21 19 19 18 18 18 18 16 16 15 13 12 11 12 14 16 14 13 12 12 11 10 10 9 10 10 10 9 9 9 9 10 11 11 11 10 10 9 9 10 11 11 12 13 12 11 9 9 9 8 7 6 5 5 5 5 5 5 5 5 4 4
10 9 8 8 9 8 9 11 14 16 16 14 14 15 17 21 25 26 24 24 23 21 21 21 20 18 17 16 15 15 14 14 13 13 12 11 10 9 11 11 10 10 12 11 11 11 10 10 10 10 9 10 10 8 7 8 8 9 10 10 10 10 10 10 11 12 12 12 13 12 11 12 13 12 12 11 9 9 9 8 8 7 6 6 5 3
11 8 6 7 7 6 7 9 10 10 9 11 14 15 16 19 23 25 25 25 24 23 23 23 21 19 18 16 15 13 13 12 11 10 10 10 9 9 10 10 8 9 10 9 8 9 9 9 10 10 9 9 10 10 9 8 8 8 9 10 9 9 9 9 9 10 11 12 12 11 11 11 11 11 12 12 11 11 11 10 9 8 7 7 6 4
12 9 8 8 9 10 14 16 16 15 14 15 17 17 16 17 20 21 21 21 20 20 20 20 20 19 17 16 15 14 14 14 13 12 12 12 12 11 10 9 8 8 8 7 7 8 8 8 9 10 10 9 8 9 10 10 10 10 10 10 9 8 9 9 9 10 11 12 12 12 11 10 10 9 9 10 10 10 10 9 9 8 8 7 6 5
Wind_Direction
199 205 212 216 222 219 218 226 237 243 247 289 315 274 237 233 235 231 156 132 153 205 231 254 261 260 262 261 250 230 195 181 219 189 145 151 160 158 156 174 202 208 196 203 193 179 165 172 180 159 158 162 163 168 163 155 155 158 157 167 181 186 190 191 194 193 193 203 209 212 214 208 205 203 199 194 196 205 200 194 193 189 191 194 192 193
201 217 220 217 225 227 223 223 238 254 262 290 300 279 262 251 258 271 219 156 148 143 253 268 269 262 259 264 268 266 243 187 184 192 171 168 170 167 165 177 189 195 209 212 197 184 174 183 184 163 164 162 163 167 161 155 154 155 156 161 173 183 195 199 200 204 206 211 216 217 217 212 199 193 203 198 191 193 193 190 188 190 192 192 193 193
203 224 228 224 226 230 235 229 229 249 260 277 274 263 271 267 267 277 264 180 141 145 227 254 264 261 257 253 253 261 264 237 190 199 223 204 182 174 171 178 181 183 202 208 201 199 194 199 200 191 188 171 165 165 161 160 157 157 158 163 182 194 199 200 204 214 217 216 221 223 219 215 196 184 204 197 186 183 187 185 179 185 189 188 192 192
204 217 224 228 231 231 236 236 233 246 246 244 257 248 249 260 264 262 231 157 152 270 260 272 274 267 262 255 244 242 249 262 243 208 222 228 215 196 172 171 177 181 197 203 204 209 204 200 199 192 185 173 169 174 177 176 172 174 177 186 203 210 205 201 208 216 213 207 211 216 214 209 199 187 188 177 172 172 177 180 176 179 184 182 184 187
221 220 215 211 222 230 230 227 226 252 248 223 239 248 248 249 253 260 252 209 232 309 316 273 278 267 261 259 255 246 230 252 259 230 214 228 236 224 180 173 185 187 194 201 203 212 216 207 195 188 177 168 181 204 204 198 195 194 195 205 210 208 204 200 208 214 210 208 206 205 201 192 191 197 191 173 166 172 173 172 169 171 175 178 182 189
229 239 225 203 209 220 224 220 206 224 250 232 225 233 251 263 265 271 277 267 224 214 209 217 245 254 246 246 245 248 232 238 253 241 224 230 239 237 198 177 179 176 182 195 202 209 219 213 194 187 176 172 192 215 216 211 208 208 205 209 204 197 195 193 205 214 211 210 208 204 198 187 187 197 193 177 166 172 174 167 158 159 165 175 185 192
227 250 246 220 221 209 210 224 207 213 235 244 231 219 232 252 265 270 279 283 263 266 262 232 250 266 242 243 237 236 232 231 240 230 220 232 244 247 214 174 164 164 169 182 196 203 209 206 192 185 177 181 199 208 215 218 214 218 217 211 202 191 189 194 203 212 210 208 208 204 196 186 185 188 184 175 165 162 170 169 160 158 166 177 186 192
209 239 234 213 236 208 200 229 212 214 227 236 244 235 227 228 234 244 260 278 277 281 281 264 265 273 262 262 266 261 240 226 233 223 204 210 243 254 211 168 164 169 169 173 186 196 197 196 191 186 182 190 200 199 211 223 219 224 228 217 207 195 193 199 202 205 209 209 206 200 192 186 181 178 178 175 168 162 164 167 167 165 172 182 190 195
193 235 226 195 224 225 212 232 219 216 226 235 243 249 260 258 251 249 250 260 260 259 264 257 253 257 260 256 268 280 264 240 247 243 211 189 234 255 196 169 172 171 169 174 184 193 193 193 192 188 187 192 196 195 210 225 224 226 229 217 207 200 197 202 202 202 206 205 201 196 191 184 175 171 173 169 164 165 163 165 169 170 176 184 186 187
191 224 228 196 217 236 222 228 227 219 217 236 245 244 264 278 289 282 261 255 255 252 250 248 251 256 261 245 247 274 276 269 260 258 262 205 222 259 159 160 169 155 159 178 188 196 198 197 195 190 189 191 194 201 211 224 225 220 219 210 203 201 200 203 203 200 198 197 196 196 190 182 176 173 170 165 163 166 166 168 172 170 176 180 174 175
219 206 220 217 212 225 232 229 228 226 217 227 244 245 228 233 251 259 258 262 259 255 251 247 250 255 262 256 245 256 54 351 295 256 340 25 71 4 102 143 156 154 168 193 184 190 195 192 191 191 194 195 199 208 213 220 223 219 215 209 201 200 203 204 201 192 189 193 195 194 187 181 180 175 168 166 166 169 169 170 171 168 172 175 171 175
243 212 208 225 220 225 239 232 223 224 216 217 234 245 237 219 225 234 233 238 242 251 256 251 245 242 253 264 122 80 77 49 5 56 47 47 51 2 36 145 161 170 181 195 188 197 198 185 183 189 196 199 200 209 213 214 218 218 214 206 197 198 202 204 198 186 182 187 189 188 183 179 178 175 171 168 167 171 170 169 169 165 165 170 173 177
236 233 212 210 219 229 241 231 216 214 206 214 220 216 233 235 224 227 224 223 234 245 250 255 254 242 249 32 78 69 57 61 38 43 55 75 87 312 272 159 163 167 166 183 197 209 208 193 191 195 197 199 197 203 211 211 211 212 208 199 195 199 203 203 199 188 180 182 185 183 182 179 175 172 172 169 166 168 168 165 163 161 163 171 175 176
215 231 222 210 196 209 229 230 210 209 201 207 215 206 219 233 230 228 224 229 244 248 246 252 256 241 132 64 78 91 58 53 46 40 52 69 162 239 217 155 160 169 159 172 187 192 194 193 196 200 200 202 200 200 206 208 207 206 201 193 192 200 204 201 198 191 180 180 184 184 182 179 175 173 171 168 166 164 161 160 159 161 168 174 171 170
214 221 225 223 189 184 213 231 228 225 207 199 215 226 222 226 240 241 226 236 249 261 279 266 260 257 160 134 72 79 67 52 43 44 55 56 58 234 196 135 150 187 181 181 190 191 192 193 193 196 201 203 199 198 202 205 205 204 200 194 192 198 204 202 198 189 180 182 185 184 182 177 174 176 172 168 165 159 155 157 157 160 166 166 162 168
225 222 217 223 212 190 202 223 234 238 222 199 206 228 232 229 238 251 252 266 278 286 296 265 265 40 121 172 142 88 80 65 47 42 52 50 47 46 73 120 149 198 207 210 216 215 207 199 196 201 206 202 199 200 203 205 206 206 203 199 195 197 199 198 194 184 178 184 187 182 180 176 174 176 174 168 160 151 151 157 158 162 167 165 167 177
228 234 221 212 212 213 209 211 227 238 236 210 207 218 229 235 240 249 256 268 283 268 262 244 199 95 130 159 128 111 96 81 61 49 55 47 38 50 46 29 38 191 222 232 235 239 239 229 223 222 218 211 207 205 204 204 207 205 203 201 198 196 194 187 185 181 178 182 184 180 177 175 174 176 173 163 151 148 157 162 163 167 169 170 176 184
217 246 243 222 212 216 216 211 220 233 238 235 224 223 221 229 238 245 245 242 238 244 245 240 231 161 160 171 116 105 85 91 80 55 50 43 35 34 33 21 14 15 301 266 258 269 284 283 286 280 250 232 221 210 200 198 202 199 197 202 199 195 191 182 177 178 180 182 181 177 174 172 172 173 168 156 150 159 168 167 166 169 169 173 180 178
210 238 241 232 222 211 212 215 218 225 232 239 242 237 232 228 229 224 228 236 238 244 249 243 243 178 68 238 139 140 109 96 71 39 22 35 40 27 27 27 14 10 7 326 289 311 329 327 336 352 359 352 297 231 203 191 197 197 197 209 201 188 183 184 183 177 177 183 182 175 172 171 168 167 163 157 161 168 171 172 175 175 172 175 178 165
205 242 246 234 221 205 207 216 219 213 219 233 240 235 242 245 232 221 216 230 243 244 246 248 242 96 42 348 6 55 89 91 79 55 6 35 50 38 39 49 37 29 33 29 19 14 9 359 346 344 5 13 5 309 191 170 192 188 138 165 178 171 166 174 190 191 181 180 178 172 170 167 162 161 161 165 170 172 173 177 178 175 170 169 172 163
182 189 254 246 215 207 214 208 221 227 207 212 229 229 230 231 234 246 228 222 248 253 250 255 241 99 40 335 16 69 88 98 100 117 115 63 62 51 51 62 58 52 53 52 49 40 33 30 22 10 14 19 22 59 82 31 55 84 72 119 151 162 150 149 173 191 196 189 174 167 166 166 165 163 162 169 174 172 174 176 173 174 172 170 172 163
186 172 215 252 224 213 227 210 215 236 228 210 214 221 228 227 222 234 230 218 239 253 261 266 270 78 334 339 30 79 87 93 95 102 95 74 69 60 56 62 63 64 67 63 55 47 43 43 37 36 40 37 41 85 58 33 58 95 79 127 153 161 152 147 154 172 187 185 172 167 166 167 167 160 158 167 168 164 168 174 175 174 168 168 170 157
201 199 208 238 241 234 241 223 213 232 240 233 222 217 226 233 229 236 235 203 220 251 268 223 108 155 220 44 49 66 73 70 73 87 84 69 64 60 58 58 59 65 71 60 50 47 48 49 46 46 52 54 58 59 39 46 78 89 51 92 147 158 156 154 152 162 168 162 161 169 168 169 170 163 162 168 165 162 168 174 176 170 162 162 159 150
188 221 225 234 246 248 250 248 245 247 242 236 227 221 228 230 231 244 237 159 178 251 286 256 128 152 158 98 83 84 77 69 63 67 70 64 60 57 55 52 45 41 46 49 52 53 51 50 51 53 55 53 48 42 36 50 65 48 46 63 133 160 160 155 150 159 160 155 162 171 171 173 173 168 169 172 171 172 177 179 176 165 160 160 151 149
217 204 214 232 234 229 236 244 262 258 247 245 236 229 240 237 228 239 186 146 184 191 169 212 283 149 122 99 103 100 85 75 66 64 63 63 61 54 51 49 38 34 36 42 51 57 58 59 60 58 57 53 48 45 41 42 50 51 40 11 146 172 177 166 152 152 155 159 168 170 168 170 169 168 169 170 177 184 183 177 166 154 152 153 150 153
257 217 208 235 231 219 232 237 256 263 256 297 280 243 248 249 231 111 85 179 209 209 199 204 164 133 113 109 130 121 101 88 76 72 66 63 64 59 54 52 46 44 43 45 52 58 62 66 68 61 58 57 59 55 46 43 44 43 30 355 358 160 181 174 163 152 149 159 166 165 165 167 169 172 169 167 178 184 178 166 155 149 149 149 152 154
254 247 250 265 264 273 302 310 322 323 312 309 308 304 299 285 255 162 160 230 115 44 308 270 127 124 124 144 148 124 110 104 85 74 69 67 70 67 62 64 61 56 53 54 57 58 59 62 62 55 48 48 56 57 50 47 41 35 38 35 45 83 165 174 166 161 160 163 165 164 166 169 170 170 166 169 175 172 166 164 157 152 151 151 155 155
333 270 315 322 302 315 352 319 300 304 309 322 326 334 347 342 319 264 86 42 65 80 5 309 136 134 151 163 139 106 96 93 80 72 72 73 76 75 73 71 68 64 62 61 60 59 60 61 61 57 47 39 41 44 46 47 35 22 27 40 64 94 208 183 161 167 170 167 166 166 166 167 168 167 166 171 172 167 165 163 156 154 154 154 159 153
242 289 3 356 327 330 350 314 284 292 316 347 353 355 2 5 1 8 44 47 58 92 164 220 154 126 133 130 105 93 89 85 77 71 71 72 70 71 72 68 64 61 60 59 58 59 61 62 63 63 58 50 48 48 47 44 37 31 27 30 56 84 34 136 164 173 167 161 166 169 168 168 169 167 167 168 167 165 165 158 153 160 161 160 163 153
298 295 355 4 337 314 324 328 303 295 305 6 18 20 13 6 10 29 49 60 68 66 96 134 95 78 80 83 87 93 92 87 79 69 64 64 60 57 59 58 55 53 54 56 58 62 64 63 62 64 66 67 67 67 64 57 50 46 42 41 51 70 99 131 164 166 154 152 159 165 169 172 173 170 169 168 163 160 161 157 155 160 162 164 162 152
240 240 250 302 300 288 290 327 294 289 290 64 38 30 28 11 354 9 51 70 74 70 105 121 99 71 70 84 91 95 91 85 76 65 57 54 52 53 53 51 50 50 52 57 62 68 70 68 66 63 62 67 72 74 73 68 64 61 57 57 64 72 98 151 153 137 137 148 155 161 169 175 177 175 173 171 166 162 163 162 158 158 163 166 159 151
236 220 222 256 267 270 249 182 256 300 295 136 68 37 35 36 351 340 49 69 91 148 155 145 123 119 123 106 95 89 83 76 70 64 58 52 48 48 48 46 47 48 51 58 67 73 74 73 73 67 61 62 68 71 71 72 73 73 70 71 77 80 83 136 150 135 136 153 162 165 171 176 180 180 178 176 174 170 168 165 163 165 169 167 161 157
244 233 235 258 265 270 282 154 154 328 281 214 79 28 11 40 55 38 49 49 54 133 168 153 107 122 130 116 97 82 73 68 63 58 58 56 49 47 47 45 45 49 53 60 69 76 78 80 81 77 69 65 65 64 66 70 72 72 72 79 88 90 92 105 126 128 128 144 169 178 179 179 180 182 183 183 179 176 174 172 170 170 170 168 165 162
209 247 256 240 256 282 38 39 251 189 214 248 7 1 352 26 68 79 55 35 46 86 99 86 96 108 111 103 94 87 78 71 66 59 55 57 54 50 48 46 48 52 57 66 78 84 86 88 90 90 84 77 71 65 58 58 62 67 71 79 88 93 97 106 116 117 114 116 135 159 172 183 186 187 190 190 184 180 179 177 176 173 170 169 167 164
173 208 220 178 243 299 72 60 286 205 199 227 74 17 350 9 70 82 64 34 42 88 97 91 92 89 88 92 94 93 88 79 70 61 54 54 57 56 52 48 49 53 60 73 86 92 94 95 95 94 92 89 86 80 69 60 57 64 75 83 91 95 97 104 110 110 109 107 104 109 125 153 179 189 194 195 190 185 182 181 181 178 173 172 173 174
195 201 210 211 223 214 166 156 149 157 147 88 63 26 357 353 50 74 76 46 34 70 93 97 101 97 99 103 101 100 96 84 70 59 53 53 57 59 57 49 46 57 69 80 88 91 93 95 93 90 90 94 96 93 89 81 71 70 75 79 87 94 97 101 103 100 102 107 109 111 112 116 132 154 173 183 184 184 184 185 185 182 180 178 175 175
206 198 202 205 214 234 210 110 103 145 129 61 44 26 15 15 16 21 83 66 38 57 98 110 115 115 115 113 114 118 107 84 68 55 49 51 58 62 64 62 64 75 83 87 91 92 93 95 95 93 92 93 95 95 95 97 94 89 86 83 84 89 94 97 94 90 92 97 103 110 113 116 123 127 134 151 163 170 179 186 188 185 182 178 173 172
214 194 203 205 203 253 218 134 134 168 141 52 28 18 17 32 337 317 321 86 40 46 97 116 119 124 129 129 139 151 124 74 60 49 46 53 66 71 74 76 78 83 86 88 91 93 94 94 94 96 95 89 86 88 90 93 97 98 98 95 93 91 92 91 86 85 90 94 95 99 100 103 111 115 117 124 129 137 153 166 180 182 176 167 169 181
182 143 165 191 161 110 154 187 139 142 112 33 3 352 353 3 318 287 234 105 23 32 90 119 123 124 133 134 141 163 146 82 79 54 54 64 75 79 81 79 77 79 81 82 83 83 86 91 94 97 98 90 84 84 87 89 91 93 93 94 95 94 93 91 87 84 86 91 95 98 95 92 97 105 114 122 122 123 129 133 153 176 178 176 183 196
165 150 161 160 142 119 92 72 68 86 78 13 347 334 339 349 332 276 211 104 16 43 93 115 116 105 95 92 88 60 31 101 111 82 75 80 79 78 81 78 75 77 79 79 77 73 76 87 91 91 91 89 89 91 91 89 90 90 88 89 92 91 89 89 92 94 93 93 95 97 96 93 91 93 101 117 125 125 127 126 129 150 171 185 197 204
169 188 202 170 132 113 115 112 87 95 57 353 335 327 328 326 307 278 74 83 70 72 80 83 86 83 73 82 89 77 70 94 105 100 94 88 78 73 73 72 69 69 70 71 70 67 66 70 74 76 78 80 86 92 92 92 94 91 88 87 86 84 84 85 89 94 97 97 96 95 95 97 98 97 94 100 115 124 126 125 123 127 138 152 174 189
166 271 249 188 127 113 121 113 100 113 40 350 330 326 340 332 215 51 43 100 93 81 80 78 80 91 93 93 99 102 102 105 107 104 97 91 81 70 65 65 64 63 65 65 60 54 51 52 56 62 67 71 79 82 79 85 95 96 95 93 88 83 85 89 91 91 93 95 96 93 92 96 105 107 104 103 108 115 119 116 111 108 110 114 123 133
357 341 100 71 48 94 121 104 113 142 21 355 339 335 9 19 6 341 51 105 97 87 90 86 85 103 108 104 105 112 115 115 113 109 106 102 97 89 77 67 63 62 63 64 59 51 43 42 45 48 50 55 66 75 73 70 75 84 92 97 96 95 95 93 91 94 97 98 99 99 97 96 99 104 109 113 113 115 117 113 104 96 89 87 89 85
349 334 88 52 352 5 110 93 72 78 19 8 12 33 31 26 9 311 112 107 98 93 98 95 93 103 109 110 112 112 111 111 110 109 106 102 101 102 96 84 74 68 62 59 60 57 47 39 40 43 44 45 49 56 66 69 67 69 72 77 84 92 98 98 93 92 94 92 91 95 101 104 103 102 108 114 116 120 123 121 116 113 108 102 97 88
41 57 82 73 49 56 75 88 83 70 47 35 43 51 47 51 60 87 106 102 97 99 103 102 103 105 107 112 112 108 108 108 108 106 101 95 91 90 90 88 81 74 67 59 54 52 46 39 36 39 44 45 43 45 51 56 61 70 72 69 67 71 78 86 89 89 88 86 83 81 82 91 99 103 107 113 119 126 129 128 131 134 135 134 132 130
87 91 91 91 100 88 71 72 81 74 62 55 58 61 62 67 73 84 93 94 95 101 104 105 106 106 108 110 108 104 104 104 101 98 93 86 78 72 73 79 80 75 72 64 54 47 45 41 37 38 45 47 45 44 46 49 52 55 57 62 69 77 82 83 84 86 84 80 80 81 81 86 97 103 110 122 135 143 145 143 143 147 149 149 146 144
75 80 82 91 121 114 66 60 70 73 66 62 67 72 75 77 81 86 93 97 100 103 104 106 107 105 103 103 102 103 103 99 95 93 89 82 75 67 63 66 69 67 63 59 53 46 42 39 35 36 41 45 45 45 46 50 52 47 45 51 61 75 91 94 91 93 94 90 85 81 80 87 97 101 102 105 111 128 144 149 149 155 160 158 153 155
86 85 80 74 78 86 91 88 82 77 72 68 71 75 77 81 86 90 95 100 104 106 106 105 105 105 104 103 102 103 102 97 93 93 92 89 82 69 61 62 61 57 55 55 52 45 39 39 38 34 33 34 37 41 45 51 56 53 47 50 56 64 77 84 81 79 81 83 80 74 68 70 77 82 82 79 74 74 90 112 122 134 144 145 145 157
95 95 90 92 96 99 108 111 99 83 72 72 78 79 79 88 94 97 99 102 104 107 107 104 104 106 106 105 104 103 102 98 93 92 91 86 77 65 66 71 66 52 49 52 51 44 39 38 34 31 32 30 24 25 36 47 55 58 57 56 56 58 62 70 76 78 77 76 73 68 63 61 63 71 77 77 74 75 81 90 93 97 108 113 108 102
93 104 108 108 103 91 89 100 106 99 85 86 94 92 88 94 99 100 103 105 106 108 109 107 107 107 105 103 99 97 98 98 96 95 90 83 77 73 73 74 63 48 49 55 52 45 40 35 27 24 30 33 28 24 26 32 42 57 66 66 60 58 59 61 68 76 82 83 81 78 76 71 64 63 67 67 65 69 74 80 85 88 93 97 95 95
81 95 102 99 93 93 95 95 97 102 105 105 105 101 96 98 98 98 100 102 103 107 111 110 110 108 104 100 93 85 84 88 88 84 79 73 71 72 71 66 57 50 50 51 49 45 40 36 30 22 15 18 31 35 31 32 40 49 56 58 58 67 76 74 74 76 76 78 82 81 81 86 86 78 67 58 54 55 59 65 75 81 82 84 85 82